Flag for Germany Weather past 2 weeks in Halle, Saxony-Anhalt, Germany

Now
70 °F

Clear.


Feels Like: 70 °F
Forecast: 55 / 70 °F
Wind: 8 mph from South

Location: Leipzig-Schkeuditz

Current Time: Sep 1, 2015 at 4:13:11 AM

Latest Report: Sep 1, 2015 at 3:20 AM


Visibility: 10 mi

Pressure: 29.77 "Hg

Humidity: 83%

Dew point: 64 °F

Location of HalleLocation

Historic Weather in Halle — Graph

°F

Halle temperature yesterday

Maximum temperature yesterday: 91 °F (at 2:20 PM)
Minimum temperature yesterday: 66 °F (at 6:20 AM)
Average temperature yesterday: 79 °F

Past Weeks' High & Low Weather Summary

 TemperatureHumidityPressure
High91 °F (Aug 31, 2:20 PM)100% (Aug 17, 2:20 AM)30.30 "Hg (Aug 17, 2:20 AM)
Low54 °F (Aug 21, 4:20 AM)32% (Aug 22, 4:20 PM)29.68 "Hg (Aug 24, 7:20 PM)
Average67 °F77%30.01 "Hg
* Reported Aug 17 2:20 AM — Sep 1 2:50 AM, Halle, Weather by CustomWeather, © 2015

Note: Actual official high and low records may vary slightly from our data, if they occured in-between our weather recording intervals... More about our weather records

Advertising

Halle weather history for previous 24 hours

 ConditionsComfort  
Time TempWeatherWind HumidityBarometerVisibility
2:50 AM
Tue, Sep 1
72 °FClear.7 mph73%29.77 "Hg10 mi
2:20 AM72 °FClear.7 mph78%29.77 "Hg10 mi
1:50 AM72 °FClear.8 mph78%29.77 "Hg10 mi
1:20 AM73 °FClear.7 mph74%29.77 "Hg10 mi
12:50 AM73 °FClear.9 mph74%29.77 "Hg10 mi
12:20 AM75 °FClear.9 mph78%29.77 "Hg10 mi
11:20 PM
Mon, Aug 31
75 °FClear.7 mph78%29.77 "Hg10 mi
10:50 PM77 °FClear.7 mph74%29.80 "Hg10 mi
10:20 PM77 °FClear.6 mph74%29.80 "Hg10 mi
9:50 PM79 °FClear.3 mph65%29.80 "Hg10 mi
9:20 PM81 °FClear.6 mph66%29.80 "Hg10 mi
8:50 PM81 °FBroken clouds.6 mph66%29.80 "HgN/A
8:20 PM81 °FBroken clouds.6 mph62%29.80 "HgN/A
7:50 PM82 °FScattered clouds.6 mph62%29.80 "HgN/A
7:20 PM84 °FScattered clouds.6 mph62%29.80 "HgN/A
6:50 PM88 °FPassing clouds.5 mph49%29.80 "HgN/A
6:20 PM90 °FPassing clouds.5 mph46%29.80 "HgN/A
5:50 PM91 °FPassing clouds.3 mph41%29.80 "HgN/A
5:20 PM91 °FPassing clouds.2 mph44%29.83 "HgN/A
4:50 PM91 °FPassing clouds.5 mph44%29.83 "HgN/A
4:20 PM91 °FSunny.3 mph44%29.83 "Hg10 mi
3:50 PM91 °FSunny.3 mph44%29.86 "Hg10 mi
3:20 PM91 °FScattered clouds.3 mph44%29.86 "HgN/A
2:50 PM90 °FScattered clouds.3 mph46%29.86 "HgN/A
2:20 PM91 °FSunny.3 mph49%29.89 "Hg10 mi
1:50 PM90 °FPassing clouds.5 mph49%29.89 "HgN/A
1:20 PM90 °FPassing clouds.5 mph49%29.89 "HgN/A
12:50 PM88 °FSunny.3 mph55%29.92 "Hg10 mi
12:20 PM86 °FSunny.5 mph59%29.92 "Hg10 mi
11:50 AM84 °FSunny.3 mph66%29.92 "Hg10 mi
11:20 AM84 °FSunny.3 mph62%29.92 "Hg10 mi
10:50 AM82 °FSunny.2 mph66%29.95 "Hg10 mi
10:20 AM81 °FSunny.2 mph74%29.95 "Hg10 mi
9:50 AM77 °FSunny.1 mph79%29.95 "Hg10 mi
9:20 AM75 °FSunny.2 mph78%29.95 "Hg10 mi
8:50 AM73 °FSunny.5 mph83%29.95 "Hg10 mi
8:20 AM70 °FSunny.3 mph94%29.95 "Hg10 mi
7:50 AM70 °FSunny.5 mph88%29.95 "Hg10 mi
7:20 AM68 °FFog.6 mph94%29.95 "HgN/A
6:50 AM66 °FFog.5 mph94%29.95 "HgN/A
6:20 AM66 °FFog.5 mph100%29.95 "HgN/A
5:50 AM68 °FFog.5 mph94%29.95 "HgN/A
5:20 AM68 °FFog.5 mph94%29.95 "HgN/A
4:50 AM70 °FClear.3 mph88%29.95 "Hg10 mi
4:20 AM70 °FClear.5 mph88%29.98 "Hg10 mi
Weather by CustomWeather, © 2015

See weather overviewHow to use our weather pages